Flag for San Marino Weather past 2 weeks in San Marino, San Marino

Now
73 °F

Sprinkles. Scattered clouds.


Feels Like: 74 °F
Forecast: 58 / 72 °F
Wind: N/A

Location: Rimini Airport

Current Time: Jul 24, 2014 at 4:10:05 PM

Latest Report: Jul 24, 2014 at 3:15 PM


Visibility: 4 mi

Pressure: 29.86 "Hg

Humidity: 78%

Dew point: 66 °F

Location of San MarinoLocation

Historic Weather in San Marino — Graph

°F

San Marino temperature yesterday

Maximum temperature yesterday: 79 °F (at 5:45 PM)
Minimum temperature yesterday: 68 °F (at 1:15 AM)
Average temperature yesterday: 73 °F

Past Weeks' High & Low Weather Summary

 TemperatureHumidityPressure
High82 °F (Jul 19, 1:45 PM)100% (Jul 9, 10:15 PM)30.07 "Hg (Jul 9, 10:15 PM)
Low57 °F (Jul 11, 6:45 AM)44% (Jul 9, 4:45 PM)29.65 "Hg (Jul 10, 3:15 AM)
Average71 °F79%29.88 "Hg
* Reported Jul 9 2:45 PM — Jul 24 2:45 PM, San Marino, Weather by CustomWeather, © 2014

Note: Actual official high and low records may vary slightly from our data, if they occured in-between our weather recording intervals... More about our weather records

Advertising

San Marino weather history for previous 24 hours

 ConditionsComfort  
Time TempWeatherWind HumidityBarometerVisibility
2:45 PM
Jul 24
75 °FScattered clouds.N/A74%29.86 "HgN/A
2:15 PM75 °FScattered clouds.N/A74%29.83 "HgN/A
1:45 PM75 °FScattered clouds.N/A74%29.86 "HgN/A
1:15 PM75 °FPassing clouds.N/A74%29.83 "HgN/A
12:45 PM75 °FPassing clouds.N/A69%29.86 "HgN/A
12:15 PM77 °FPassing clouds.N/A65%29.86 "HgN/A
11:45 AM77 °FPassing clouds.N/A65%29.83 "HgN/A
11:15 AM75 °FPassing clouds.N/A69%29.83 "HgN/A
10:45 AM75 °FPassing clouds.N/A69%29.83 "HgN/A
10:15 AM73 °FSunny.N/A74%29.83 "Hg10 mi
9:45 AM72 °FSunny.N/A78%29.83 "Hg10 mi
9:15 AM72 °FSunny.N/A78%29.83 "Hg10 mi
8:45 AM70 °FSunny.N/A83%29.83 "Hg10 mi
8:15 AM70 °FSunny.N/A78%29.83 "Hg10 mi
7:45 AM68 °FSunny.N/A83%29.83 "Hg10 mi
7:15 AM68 °FSunny.N/A83%29.83 "Hg10 mi
6:45 AM68 °FClear.N/A83%29.83 "Hg10 mi
6:15 AM68 °FClear.N/A83%29.83 "Hg10 mi
5:45 AM68 °FClear.N/A83%29.83 "Hg10 mi
5:15 AM66 °FClear.N/A83%29.83 "Hg10 mi
4:45 AM66 °FClear.N/A83%29.83 "Hg10 mi
4:15 AM64 °FClear.N/A83%29.83 "Hg10 mi
2:45 AM66 °FClear.N/A88%29.86 "Hg10 mi
2:15 AM66 °FClear.N/A88%29.86 "Hg10 mi
1:15 AM68 °FClear.N/A88%29.86 "Hg10 mi
12:45 AM68 °FClear.N/A88%29.86 "Hg10 mi
12:15 AM68 °FClear.N/A88%29.86 "Hg10 mi
11:45 PM
Jul 23
68 °FClear.N/A88%29.86 "Hg10 mi
11:15 PM70 °FClear.N/A88%29.86 "Hg10 mi
10:45 PM70 °FClear.N/A88%29.86 "Hg10 mi
10:15 PM72 °FClear.N/A83%29.86 "Hg10 mi
9:15 PM73 °FSunny.N/A74%29.83 "Hg10 mi
8:45 PM75 °FSunny.N/A69%29.83 "Hg10 mi
8:15 PM77 °FSunny.N/A65%29.83 "Hg10 mi
7:45 PM77 °FSunny.N/A61%29.83 "Hg10 mi
7:15 PM77 °FSunny.N/A61%29.83 "Hg10 mi
6:45 PM77 °FSunny.N/A61%29.83 "Hg10 mi
6:15 PM77 °FSunny.N/A61%29.83 "Hg10 mi
5:45 PM79 °FSunny.N/A61%29.80 "Hg10 mi
5:15 PM77 °FSunny.N/A61%29.83 "Hg10 mi
4:45 PM77 °FSunny.N/A65%29.83 "Hg10 mi
4:15 PM77 °FSunny.N/A65%29.83 "Hg10 mi
Weather by CustomWeather, © 2014

See weather overviewHow to use our weather pages